Location: Christian Reformed Church
(43.0975°N, 93.8113°W)
Time: 23:22:46
(UTC+00:00)

Daily predictions for brighter satellites

Satellite Brightness Start Highest point End
(mag) Time Altitude Azimuth Time Altitude Azimuth Time Altitude Azimuth
NOSS 8 (A) 4.2 12:03:36 48° WNW 12:04:14 63° SW 12:07:39 10° SSE
Cosmos 1812 Rocket 4.3 12:00:21 10° N 12:04:36 53° E 12:08:51 10° SSE
Cosmos 1602 Rocket 3.9 12:03:38 10° S 12:08:02 68° E 12:12:27 10° NNE
Cosmos 1833 4.1 12:02:46 10° SW 12:08:22 65° WNW 12:14:04 10° NNE
IRIDIUM 103 4.2 12:04:41 10° S 12:09:54 79° W 12:15:09 10° N
Cosmos 2333 Rocket 2.8 12:07:27 23° WNW 12:10:13 37° WSW 12:15:23 10° S
Cosmos 2219 Rocket 2.1 12:06:19 12° NNW 12:11:40 88° WSW 12:17:16 10° SSE
Okean 1-7 Rocket 4.4 12:10:31 10° S 12:14:53 54° E 12:19:15 10° NNE
Cosmos 2221 2.5 12:13:17 10° N 12:17:25 77° E 12:21:33 10° SSE
Cosmos 2058 Rocket 4.0 12:17:26 22° WNW 12:18:53 27° W 12:22:34 10° SSW
BREEZE-M DEB (TANK) 4.1 12:20:44 20° NNW 12:21:14 22° N 12:23:08 10° NE
SL-08 ROCKET BODY 4.3 12:15:46 10° SSW 12:21:34 65° W 12:27:23 10° N
CZ-4 R/B 4.4 12:17:41 10° N 12:21:44 31° WNW 12:25:45 10° SW
Cosmos 2322 Rocket 2.7 12:18:09 17° NW 12:21:58 38° WSW 12:27:09 10° S
Thor Agena Rocket 4.2 12:18:44 10° NNE 12:23:42 58° ESE 12:28:38 10° S
Cosmos 1707 2.8 12:22:03 10° N 12:25:08 55° E 12:28:11 10° SSE
ISS -2.1 12:22:59 10° SSW 12:26:06 36° SE 12:29:15 10° ENE
Cosmos 1553 Rocket 4.2 12:21:21 10° NNW 12:27:35 55° W 12:33:47 10° SSW
S3M 4.2 12:21:40 10° N 12:27:51 73° E 12:33:56 10° SSE
CZ-2D R/B 4.4 12:25:15 10° NNE 12:28:14 37° E 12:31:11 10° SSE
IRIDIUM 106 4.4 12:23:10 10° SSW 12:28:15 53° W 12:33:23 10° N
Cosmos 405 Rocket 3.3 12:26:50 10° SW 12:29:34 24° WNW 12:32:18 10° NNW
Cosmos 2322 4.2 12:31:27 10° NNW 12:37:04 61° ENE 12:42:40 10° SE
Cosmos 1125 Rocket 3.5 12:32:28 10° NNW 12:37:43 77° WSW 12:42:54 10° SSE
Cosmos 1484 Rocket 3.0 12:37:36 10° N 12:40:41 33° WNW 12:43:43 10° SW
Cosmos 1825 Rocket 3.8 12:36:19 10° S 12:40:42 75° E 12:45:07 10° NNE
Cosmos 2208 Rocket 4.5 12:36:31 10° S 12:41:41 66° ESE 12:46:50 10° NNE
IGS 5A 3.6 12:38:57 10° N 12:42:46 44° WNW 12:46:35 10° SW
Helios 1A Rocket 3.9 12:42:17 10° SW 12:44:39 18° W 12:46:26 13° WNW
Meteor 1-19 Rocket 4.3 12:38:56 10° NNW 12:44:48 77° W 12:50:45 10° S
Meteor 1-10 Rocket 4.3 12:38:51 10° NNW 12:44:48 82° W 12:50:44 10° S
Cosmos 1758 Rocket 4.3 12:41:12 10° SW 12:45:04 30° WNW 12:48:56 10° NNW
COSMO-SKYMED 1 3.8 12:42:45 10° SW 12:45:48 20° W 12:48:53 10° NW
SMAP 3.0 12:43:07 10° NNE 12:47:48 85° WNW 12:52:27 10° SSW
Cosmos 1076 Rocket 4.3 12:44:39 10° S 12:48:45 56° E 12:52:56 10° NNE
BREEZE-M DEB (TANK) 3.6 12:45:23 10° SW 12:49:03 49° SSE 12:51:18 10° ENE
ATLAS 3B R/B 3.4 12:41:23 10° NNW 12:49:11 64° NE 12:56:33 10° SE
SL-16 R/B 4.0 12:49:41 10° WNW 12:51:27 12° W 12:53:17 10° WSW
Landsat 7 3.8 12:47:18 10° NNE 12:51:59 87° ESE 12:56:38 10° SSW
Cosmos 2266 Rocket 4.1 12:48:43 10° SSW 12:55:00 60° W 13:01:15 10° N
Cosmos 1437 Rocket 2.9 12:52:35 10° NNW 12:55:53 41° W 12:59:10 10° SSW
Cosmos 44 3.1 12:52:31 10° SW 12:57:03 72° NW 13:01:56 10° NNE
USA 290 2.8 12:55:24 10° S 12:58:33 61° ESE 13:01:44 10° NNE
ARIANE 6 FM1 Upper Stage 2.9 12:56:10 10° SSW 13:00:13 73° SE 13:04:11 10° NE
COSMOS 2428 2.8 12:56:42 10° NNW 13:02:26 84° ENE 13:08:08 10° SSE
Cosmos 1174 4.3 12:57:07 10° NNW 13:02:37 84° WSW 13:06:59 10° SSE
CORIOLIS 4.2 12:58:26 10° N 13:03:47 66° WNW 13:09:08 10° SSW
SL-08 R/B 4.3 12:59:23 10° SE 13:03:47 47° ENE 13:08:18 10° N
Cosmos 972 Rocket 4.4 13:04:28 10° NNW 13:10:54 80° WSW 13:16:33 10° S
Cosmos 2279 Rocket 4.4 23:04:09 10° SSW 23:10:20 72° W 23:16:35 10° N
CBERS-1 4.0 23:06:46 10° SSE 23:11:52 77° ENE 23:16:59 10° N
Cosmos 1607 4.2 23:06:05 10° NW 23:12:21 81° WSW 23:18:39 10° SSE
Cosmos 1626 Rocket 4.4 23:08:25 10° NNW 23:12:39 54° W 23:16:48 10° S
Meteor 1-25 Rocket 4.4 23:07:28 10° N 23:13:08 53° ENE 23:18:43 10° SSE
Cosmos 1484 Rocket 2.5 23:09:57 10° SSE 23:13:27 89° WSW 23:16:57 10° NNW
Cosmos 1743 2.5 23:11:02 10° NNW 23:14:16 75° W 23:17:28 10° S
NOSS 3-2 (C) 3.7 23:13:15 10° SW 23:18:08 55° NW 23:23:59 10° NNE
Cosmos 2227 Rocket 2.3 23:13:08 10° NNW 23:18:41 56° ENE 23:24:13 10° SE
Cosmos 1606 Rocket 3.8 23:14:35 10° S 23:18:52 52° E 23:23:10 10° NNE
Cosmos 1655 Rocket 4.3 23:21:03 10° N 23:26:57 43° ENE 23:32:48 10° SSE
Cosmos 1697 Rocket 2.8 23:21:21 10° SSW 23:26:57 84° WNW 23:32:36 10° NNE
IGS 5A 3.6 23:24:48 10° S 23:28:44 75° WSW 23:32:44 10° NNW
UNK 3.7 23:28:21 10° NNE 23:32:57 77° ESE 23:37:29 10° S
Cosmos-2242 4.1 23:29:50 10° SE 23:33:11 23° E 23:36:32 10° NE
Cosmos 1805 4.5 23:33:09 10° NNE 23:35:15 15° ENE 23:37:21 10° ESE
Cosmos 2151 3.5 23:31:22 10° NNW 23:35:29 60° W 23:39:35 10° S
Thor Agena Rocket 3.7 23:35:46 10° SSE 23:40:58 82° WSW 23:46:09 10° NNW
Cosmos 1726 Rocket 3.6 23:36:35 10° S 23:41:11 68° E 23:45:44 10° NNE
Radarsat 4.5 23:36:08 10° SSE 23:41:17 77° ENE 23:46:29 10° N
MOS 1 Rocket 3.6 23:40:15 10° SSE 23:45:04 54° ENE 23:50:09 10° N
AQUARIUS 4.2 23:42:06 10° SSE 23:46:23 53° ENE 23:50:42 10° N
IRS-P3 4.3 23:41:25 10° SE 23:46:32 51° ENE 23:51:40 10° N
Cosmos 2266 Rocket 4.3 23:43:03 10° NNW 23:49:08 70° W 23:55:06 10° S
SMAP 3.3 23:46:56 10° S 23:51:35 76° WSW 23:56:16 10° NNW
YAOGAN 1 3.6 23:48:58 10° ESE 23:52:22 24° ENE 23:55:46 10° NNE
Cosmos 1898 Rocket 3.7 23:48:03 10° S 23:52:58 47° ESE 23:57:25 13° NNE
NOSS 2-3 (C) 3.3 23:49:46 10° SW 23:53:12 62° NW 23:56:05 15° NNE
Okean 1 3.9 23:50:52 10° SSE 23:53:59 28° E 23:55:23 21° NE
Cosmos 372 Rocket 4.0 23:49:08 10° S 23:54:12 60° ESE 23:59:09 10° NNE
